STARLINK-1775, 46681

Orbit data source: Space-Track

STARLINK-1775, 46681 is a payload satellite owned by SpaceX/Seattle (US) in LEO that was launched on Sun, 18 Oct 2020 UTC via an FALCON 9 launch vehicle from the Air Force Eastern Test Range (AFETR). Payload-class satellites include a variety of spacecraft equipped with specific instruments for various scientific and technological missions. These include communications satellites like Starlink; space stations such as the ISS; scientific satellites like the Hubble; Earth observation satellites from companies like Planet Labs, Umbra, and HawkEye 360; GPS; miniature CubeSats for education and research; and military/defense satellites.

Loading next visibility...
Identifier
46681, 2020-073M
Orbit
LEO
Country
Flag of USUS
Related business
Manufacturer
SpaceX/Seattle
Mission
Partially operational Commercial Communications
Bus & Motor
STARLINK, Unknown motor
Mass
260 kg wet, ~248 kg dry
Launch date (UTC)
2020-10-18 (5 years ago)
Launch vehicle
FALCON 9
Launch site
Air Force Eastern Test Range (AFETR)
Object type
Payload
Rocket body
Debris
Shape & HBR
Box + 1 Pan, 10.1 m
Radar Cross Section
13.562 m², Large (>1 m²)

Expand to show TLE details & history
Last TLE update: 5 hours ago

TLE from 5 hours ago
0 STARLINK-1775
1 46681U 20073M   26107.33336806  .00402410  79968-4  78032-3 0  9992
2 46681  53.0374  14.5472 0005720 201.3640   9.6768 15.99780874  6035
Epoch: 2026-04-17T08:00Z
TLE epoch observation values (Epoch: 2026-04-17T08:00:03.000Z)
Latitude
-24.54113°
Longitude
-110.95584°
Altitude
278.379 km
Speed
7.742 km/s
True Right ascension
14h 18m 05s
True Declination
-24° 24' 08"
Sunlit
Object was in full shadow at epoch
Visualization orbit readout
Latitude
Unknown
Longitude
Unknown
Altitude
Unknown
Speed
Unknown
Apparent Right ascension
Unknown
Apparent Declination
Unknown
Sunlit
N/A
Visualization observer readout
Local Sidereal Time
19:25:32
Azimuth
Unknown
Elevation
Unknown
Doppler factor
Unknown
Orbital elements
Apogee altitude
279.116 km
Perigee altitude
271.505 km
Semi-major axis
6,653.447 km
Eccentricity
0.00057
Inclination
53.0374°
RAAN
14.5472°
Arg. of periapsis
201.364°
True anomaly
9.68783°
Mean anomaly
9.6768°
Eccentric anomaly
9.68231°
Mean motion
3.9992 °/min
Orbital period
90.02 mins
BSTAR
0.00078032
Loading maneuver chart data...
Computing Atmospheric mass density...

Documentation

Showing up to 5 results
|